sat.trackr.live / text

‹ back to catalog

ONEWEB-0439

NORAD 51635 · 2022-012P

PAYLOAD ACTIVE UNKNOWN

§ Identity

Operator
Country
UK
Launch date
2022-02-10
Launch site
FRGUI
Launch vehicle
Mass (kg)
RCS (m²)

Purposes: comms

External: N2YO · Heavens-Above · Gunter

§ Orbital elements

Epoch: 2026-05-25T02:56:10.218336Z

Period
109.89 min
Inclination
87.8851°
Eccentricity
0.0001913
Mean motion
13.10373073 rev/d
Perigee alt
1,220.3 km
Apogee alt
1,223.2 km
Semi-major
7,599.9 km
B*
-1.8242e-3
RAAN
40.8603°
Arg perigee
77.5889°
Mean anomaly
282.5453°
Rev number
20,630

§ Raw data

ONEWEB-04391 51635U 22012P   26145.12234049 -.00000624  00000+0 -18242-2 0  99922 51635  87.8851  40.8603 0001913  77.5889 282.5453 13.10373073206306

JSON: /api/v1/satellites/51635 · /tle

For live sub-satellite position, see the globe view (requires WebGL).

§ Visibility from observer

Set your observer location to see the next 7 days of passes ≥ 10°. The values pass through the URL so the page stays shareable.

No JS? Fill the form by hand. The geolocation button needs JavaScript.